• In Uzbekistan
  • List of Countries
  • For 7 days
  • Water Temperature
  • Satellite Maps
  • Weather Map
  • Weather Widgets
  • user-avatar
    Login

    Hourly Weather Capao Bonito

    Today, 21 February, Wednesday

    Time Temperature Precipitation Wind Pressure Humidity
    00:00 +21°C° 0.3 mm 2 mps 698 mmHg 96%
    01:00 +21°C° 0.4 mm 2 mps 698 mmHg 96%
    02:00 +21°C° 0.4 mm 2 mps 698 mmHg 96%
    03:00 +21°C° 0.4 mm 2 mps 698 mmHg 96%
    04:00 +21°C° 0 mm 2 mps 698 mmHg 95%
    05:00 +21°C° 0 mm 2 mps 698 mmHg 95%
    06:00 +21°C° 0 mm 2 mps 698 mmHg 95%
    07:00 +23°C° 0 mm 2 mps 699 mmHg 88%
    08:00 +24°C° 0 mm 3 mps 699 mmHg 82%
    09:00 +25°C° 0 mm 3 mps 700 mmHg 76%
    10:00 +27°C° 0 mm 3 mps 700 mmHg 69%
    11:00 +28°C° 0 mm 3 mps 700 mmHg 63%
    12:00 +30°C° 0 mm 3 mps 700 mmHg 56%
    13:00 +30°C° 0 mm 3 mps 699 mmHg 56%
    14:00 +30°C° 0 mm 3 mps 699 mmHg 56%
    15:00 +30°C° 0 mm 3 mps 698 mmHg 56%
    16:00 +29°C° 0.2 mm 2 mps 698 mmHg 63%
    17:00 +28°C° 0.2 mm 2 mps 697 mmHg 71%
    18:00 +27°C° 0.2 mm 1 mps 697 mmHg 78%
    19:00 +25°C° 0.1 mm 1 mps 697 mmHg 83%
    20:00 +23°C° 0.1 mm 1 mps 698 mmHg 88%
    21:00 +22°C° 0.1 mm 1 mps 698 mmHg 93%
    22:00 +21°C° 0 mm 1 mps 698 mmHg 94%
    23:00 +21°C° 0 mm 1 mps 699 mmHg 95%

    Tomorrow, 22 February, Thursday

    Time Temperature Precipitation Wind Pressure Humidity
    00:00 +21°C° 0 mm 1 mps 699 mmHg 96%
    01:00 +20°C° 0 mm 1 mps 699 mmHg 96%
    02:00 +20°C° 0 mm 1 mps 698 mmHg 97%
    03:00 +20°C° 0 mm 1 mps 698 mmHg 97%
    04:00 +20°C° 0 mm 1 mps 698 mmHg 97%
    05:00 +20°C° 0 mm 1 mps 698 mmHg 97%
    06:00 +19°C° 0 mm 1 mps 698 mmHg 97%
    07:00 +22°C° 0 mm 1 mps 699 mmHg 89%
    08:00 +24°C° 0 mm 1 mps 700 mmHg 81%
    09:00 +26°C° 0 mm 1 mps 701 mmHg 73%
    10:00 +27°C° 0.1 mm 1 mps 701 mmHg 65%
    11:00 +29°C° 0.1 mm 1 mps 701 mmHg 57%
    12:00 +31°C° 0.1 mm 1 mps 701 mmHg 49%
    13:00 +31°C° 0 mm 1 mps 700 mmHg 48%
    14:00 +31°C° 0 mm 2 mps 700 mmHg 46%
    15:00 +31°C° 0 mm 2 mps 699 mmHg 45%
    16:00 +30°C° 0.1 mm 2 mps 699 mmHg 54%
    17:00 +28°C° 0.1 mm 2 mps 699 mmHg 62%
    18:00 +26°C° 0.1 mm 2 mps 699 mmHg 71%
    19:00 +24°C° 0.1 mm 3 mps 699 mmHg 77%
    20:00 +22°C° 0.1 mm 3 mps 700 mmHg 83%
    21:00 +20°C° 0.1 mm 3 mps 700 mmHg 89%
    22:00 +19°C° 0 mm 3 mps 700 mmHg 89%
    23:00 +19°C° 0 mm 3 mps 701 mmHg 90%

    Day after tomorrow, 23 February, Friday

    Time Temperature Precipitation Wind Pressure Humidity
    00:00 +18°C° 0 mm 2 mps 701 mmHg 91%
    01:00 +18°C° 0 mm 2 mps 701 mmHg 92%
    02:00 +18°C° 0 mm 2 mps 700 mmHg 93%
    03:00 +18°C° 0 mm 2 mps 700 mmHg 94%
    04:00 +18°C° 0 mm 2 mps 700 mmHg 94%
    05:00 +18°C° 0 mm 2 mps 701 mmHg 94%
    06:00 +18°C° 0 mm 2 mps 701 mmHg 94%
    07:00 +19°C° 0 mm 3 mps 701 mmHg 88%
    08:00 +20°C° 0 mm 3 mps 702 mmHg 82%
    09:00 +22°C° 0 mm 3 mps 703 mmHg 77%
    10:00 +24°C° 0 mm 3 mps 703 mmHg 70%
    11:00 +26°C° 0 mm 3 mps 703 mmHg 63%
    12:00 +28°C° 0 mm 3 mps 703 mmHg 56%
    13:00 +28°C° 0 mm 3 mps 703 mmHg 56%
    14:00 +28°C° 0 mm 3 mps 702 mmHg 56%
    15:00 +28°C° 0 mm 3 mps 702 mmHg 57%
    16:00 +27°C° 0 mm 4 mps 702 mmHg 64%
    17:00 +25°C° 0 mm 4 mps 701 mmHg 71%
    18:00 +23°C° 0 mm 4 mps 701 mmHg 78%
    19:00 +22°C° 0 mm 4 mps 702 mmHg 82%
    20:00 +20°C° 0 mm 3 mps 702 mmHg 86%
    21:00 +19°C° 0 mm 3 mps 703 mmHg 90%
    22:00 +19°C° 0.1 mm 3 mps 703 mmHg 91%
    23:00 +19°C° 0.1 mm 3 mps 703 mmHg 92%

    24 February, Saturday

    Time Temperature Precipitation Wind Pressure Humidity
    00:00 +18°C° 0.1 mm 3 mps 703 mmHg 93%
    01:00 +18°C° 0 mm 2 mps 703 mmHg 93%
    02:00 +18°C° 0 mm 2 mps 702 mmHg 93%
    03:00 +18°C° 0 mm 2 mps 702 mmHg 93%
    04:00 +18°C° 0 mm 2 mps 702 mmHg 93%
    05:00 +18°C° 0 mm 2 mps 702 mmHg 93%
    06:00 +18°C° 0 mm 2 mps 702 mmHg 92%
    07:00 +19°C° 0 mm 3 mps 703 mmHg 88%
    08:00 +20°C° 0 mm 3 mps 704 mmHg 84%
    09:00 +21°C° 0 mm 3 mps 704 mmHg 80%
    10:00 +24°C° 0.1 mm 3 mps 704 mmHg 73%
    11:00 +25°C° 0.1 mm 4 mps 704 mmHg 67%
    12:00 +27°C° 0.1 mm 4 mps 704 mmHg 60%
    13:00 +27°C° 0 mm 4 mps 704 mmHg 59%
    14:00 +27°C° 0 mm 4 mps 703 mmHg 58%
    15:00 +27°C° 0 mm 4 mps 703 mmHg 57%
    16:00 +26°C° 0 mm 4 mps 703 mmHg 63%
    17:00 +25°C° 0 mm 4 mps 703 mmHg 69%
    18:00 +22°C° 0 mm 4 mps 703 mmHg 75%
    19:00 +21°C° 0 mm 3 mps 703 mmHg 80%
    20:00 +20°C° 0 mm 3 mps 703 mmHg 85%
    21:00 +18°C° 0 mm 3 mps 704 mmHg 91%
    22:00 +18°C° 0 mm 3 mps 704 mmHg 91%
    23:00 +18°C° 0 mm 3 mps 704 mmHg 92%

    25 February, Sunday

    Time Temperature Precipitation Wind Pressure Humidity
    00:00 +18°C° 0 mm 3 mps 704 mmHg 93%
    01:00 +18°C° 0 mm 2 mps 703 mmHg 92%
    02:00 +18°C° 0 mm 2 mps 703 mmHg 92%
    03:00 +18°C° 0 mm 2 mps 703 mmHg 92%
    04:00 +18°C° 0 mm 2 mps 703 mmHg 92%
    05:00 +18°C° 0 mm 2 mps 703 mmHg 93%
    06:00 +18°C° 0 mm 2 mps 703 mmHg 93%
    07:00 +19°C° 0 mm 2 mps 704 mmHg 89%
    08:00 +20°C° 0 mm 3 mps 705 mmHg 84%
    09:00 +21°C° 0 mm 3 mps 705 mmHg 79%
    10:00 +24°C° 0 mm 3 mps 705 mmHg 73%
    11:00 +26°C° 0 mm 3 mps 705 mmHg 66%
    12:00 +27°C° 0 mm 3 mps 705 mmHg 59%
    13:00 +27°C° 0.1 mm 3 mps 704 mmHg 60%
    14:00 +27°C° 0.1 mm 4 mps 704 mmHg 60%
    15:00 +27°C° 0.1 mm 4 mps 703 mmHg 60%
    16:00 +26°C° 0.1 mm 4 mps 703 mmHg 66%
    17:00 +23°C° 0.1 mm 4 mps 703 mmHg 71%
    18:00 +22°C° 0.1 mm 4 mps 703 mmHg 77%
    19:00 +21°C° 0 mm 4 mps 703 mmHg 82%
    20:00 +20°C° 0 mm 3 mps 703 mmHg 86%
    21:00 +19°C° 0 mm 3 mps 703 mmHg 90%
    22:00 +19°C° 0 mm 3 mps 703 mmHg 91%
    23:00 +19°C° 0 mm 3 mps 703 mmHg 91%

    26 February, Monday

    Time Temperature Precipitation Wind Pressure Humidity
    00:00 +18°C° 0 mm 2 mps 703 mmHg 91%
    01:00 +18°C° 0 mm 2 mps 703 mmHg 91%
    02:00 +18°C° 0 mm 2 mps 703 mmHg 92%
    03:00 +18°C° 0 mm 2 mps 702 mmHg 92%
    04:00 +18°C° 0 mm 2 mps 702 mmHg 92%
    05:00 +18°C° 0 mm 2 mps 703 mmHg 92%
    06:00 +18°C° 0 mm 2 mps 703 mmHg 92%
    07:00 +19°C° 0 mm 2 mps 703 mmHg 88%
    08:00 +20°C° 0 mm 2 mps 704 mmHg 84%
    09:00 +21°C° 0 mm 3 mps 704 mmHg 81%
    10:00 +23°C° 0 mm 2 mps 704 mmHg 77%
    11:00 +24°C° 0 mm 2 mps 704 mmHg 74%
    12:00 +25°C° 0 mm 2 mps 704 mmHg 71%
    13:00 +25°C° 0.2 mm 2 mps 703 mmHg 71%
    14:00 +26°C° 0.2 mm 2 mps 703 mmHg 71%
    15:00 +26°C° 0.2 mm 2 mps 702 mmHg 72%
    16:00 +25°C° 0.2 mm 3 mps 702 mmHg 77%
    17:00 +24°C° 0.2 mm 3 mps 702 mmHg 82%
    18:00 +22°C° 0.2 mm 3 mps 701 mmHg 86%
    19:00 +21°C° 0 mm 3 mps 702 mmHg 88%
    20:00 +20°C° 0 mm 3 mps 702 mmHg 90%
    21:00 +19°C° 0 mm 3 mps 702 mmHg 92%
    22:00 +19°C° 0 mm 3 mps 702 mmHg 92%
    23:00 +19°C° 0 mm 3 mps 702 mmHg 92%
    Show more